Index of /public/pub/Notes/StatisticalMechanics/Reichl_2/Chap10

[ICO]NameLast modifiedSizeDescription

[DIR]Parent Directory  -  
[   ]10.A._Introduction.doc20-Aug-2013 10:24 44K 
[TXT]10.A._Introduction.htm20-Aug-2013 10:24 21K 
[   ]10.B.1.1._MassBalanceEquation.doc20-Aug-2013 10:24 72K 
[TXT]10.B.1.1._MassBalanceEquation.htm20-Aug-2013 10:24 32K 
[   ]10.B.1.2._MomentumBalanceEquation.doc20-Aug-2013 10:24 130K 
[TXT]10.B.1.2._MomentumBalanceEquation.htm20-Aug-2013 10:24 52K 
[   ]10.B.1.3._EnergyAndEntropyBalanceEquations.doc20-Aug-2013 10:24 54K 
[TXT]10.B.1.3._EnergyAndEntropyBalanceEquations.htm20-Aug-2013 10:24 25K 
[   ]10.B.1._BalanceEquations.doc20-Aug-2013 10:24 51K 
[TXT]10.B.1._BalanceEquations.htm20-Aug-2013 10:24 24K 
[   ]10.B.2.1._TimeDerivativesOfInternalEnergy.doc20-Aug-2013 10:24 88K 
[TXT]10.B.2.1._TimeDerivativesOfInternalEnergy.htm20-Aug-2013 10:24 38K 
[   ]10.B.2.2._CaseOfNoExternalForces.doc20-Aug-2013 10:24 178K 
[TXT]10.B.2.2._CaseOfNoExternalForces.htm20-Aug-2013 10:24 73K 
[   ]10.B.2.3._Exercise10.1.doc20-Aug-2013 10:24 178K 
[TXT]10.B.2.3._Exercise10.1.htm20-Aug-2013 10:24 76K 
[   ]10.B.2._EntropySourceAndEntropyCurrent.doc20-Aug-2013 10:24 50K 
[TXT]10.B.2._EntropySourceAndEntropyCurrent.htm20-Aug-2013 10:24 23K 
[   ]10.B.3.1._UsefulMathematicsTensors.doc20-Aug-2013 10:24 139K 
[TXT]10.B.3.1._UsefulMathematicsTensors.htm20-Aug-2013 10:24 60K 
[   ]10.B.3.2._Basics.doc20-Aug-2013 10:24 89K 
[TXT]10.B.3.2._Basics.htm20-Aug-2013 10:24 38K 
[   ]10.B.3.3._NavierStokesEquations.doc20-Aug-2013 10:24 70K 
[TXT]10.B.3.3._NavierStokesEquations.htm20-Aug-2013 10:24 37K 
[   ]10.B.3._TransportCoefficients.doc20-Aug-2013 10:24 50K 
[TXT]10.B.3._TransportCoefficients.htm20-Aug-2013 10:24 22K 
[   ]10.B._NavierStokesHydrodynamicEquations.doc20-Aug-2013 10:24 50K 
[TXT]10.B._NavierStokesHydrodynamicEquations.htm20-Aug-2013 10:24 22K 
[   ]10.C.1.1._LinearizedEquations.doc20-Aug-2013 10:24 62K 
[TXT]10.C.1.1._LinearizedEquations.htm20-Aug-2013 10:24 30K 
[   ]10.C.1.2._dpAnddTIndependent.doc20-Aug-2013 10:24 54K 
[TXT]10.C.1.2._dpAnddTIndependent.htm20-Aug-2013 10:24 30K 
[   ]10.C.1.3._IdealFluid.doc20-Aug-2013 10:24 119K 
[TXT]10.C.1.3._IdealFluid.htm20-Aug-2013 10:24 50K 
[   ]10.C.1.4._SpatialFourierTransform.doc20-Aug-2013 10:24 68K 
[TXT]10.C.1.4._SpatialFourierTransform.htm20-Aug-2013 10:24 36K 
[   ]10.C.1.5._ThermodynamicRelations.doc20-Aug-2013 10:24 155K 
[TXT]10.C.1.5._ThermodynamicRelations.htm20-Aug-2013 10:24 53K 
[   ]10.C.1.6._LongitudinalAndTransverseModes.doc20-Aug-2013 10:24 65K 
[TXT]10.C.1.6._LongitudinalAndTransverseModes.htm20-Aug-2013 10:24 32K 
[   ]10.C.1.7._TemporalLaplaceTransform.doc20-Aug-2013 10:24 111K 
[TXT]10.C.1.7._TemporalLaplaceTransform.htm20-Aug-2013 10:24 53K 
[   ]10.C.1._LinearizationOfTheHydrodynamicEquations.doc20-Aug-2013 10:24 52K 
[TXT]10.C.1._LinearizationOfTheHydrodynamicEquations.htm20-Aug-2013 10:24 25K 
[   ]10.C.2._TransverseHydrodynamicModes.doc20-Aug-2013 10:24 62K 
[TXT]10.C.2._TransverseHydrodynamicModes.htm20-Aug-2013 10:24 27K 
[   ]10.C.3.1._Basics.doc20-Aug-2013 10:24 115K 
[TXT]10.C.3.1._Basics.htm20-Aug-2013 10:24 59K 
[   ]10.C.3.2._LongWavelengthLimit.doc20-Aug-2013 10:24 89K 
[TXT]10.C.3.2._LongWavelengthLimit.htm20-Aug-2013 10:24 38K 
[   ]10.C.3.3._Exercise10.3.doc20-Aug-2013 10:24 94K 
[TXT]10.C.3.3._Exercise10.3.htm20-Aug-2013 10:24 51K 
[   ]10.C.3._LongitudinalHydrodynamicModes.doc20-Aug-2013 10:24 50K 
[TXT]10.C.3._LongitudinalHydrodynamicModes.htm20-Aug-2013 10:24 22K 
[   ]10.C._LinearizedHydrodynamicEquations.doc20-Aug-2013 10:24 50K 
[TXT]10.C._LinearizedHydrodynamicEquations.htm20-Aug-2013 10:24 23K 
[   ]10.D.1.1._MicroscopicReversibility.doc20-Aug-2013 10:24 151K 
[TXT]10.D.1.1._MicroscopicReversibility.htm20-Aug-2013 10:24 62K 
[   ]10.D.1.2._RegressionOfFluctuations.doc20-Aug-2013 10:24 119K 
[TXT]10.D.1.2._RegressionOfFluctuations.htm20-Aug-2013 10:24 56K 
[   ]10.D.1._OnsagerRelations.doc20-Aug-2013 10:24 50K 
[TXT]10.D.1._OnsagerRelations.htm20-Aug-2013 10:24 22K 
[   ]10.D.2.1._CorrelationMatrix.doc20-Aug-2013 10:24 86K 
[TXT]10.D.2.1._CorrelationMatrix.htm20-Aug-2013 10:24 40K 
[   ]10.D.2.2._SpectralMatrix.doc20-Aug-2013 10:24 86K 
[TXT]10.D.2.2._SpectralMatrix.htm20-Aug-2013 10:24 41K 
[   ]10.D.2.3._PropertiesOfSpectralMatrix.doc20-Aug-2013 10:24 99K 
[TXT]10.D.2.3._PropertiesOfSpectralMatrix.htm20-Aug-2013 10:24 50K 
[   ]10.D.2.4._Exercise10.4.doc20-Aug-2013 10:24 141K 
[TXT]10.D.2.4._Exercise10.4.htm20-Aug-2013 10:24 63K 
[   ]10.D.2._WienerKhintchineTheorem.doc20-Aug-2013 10:24 50K 
[TXT]10.D.2._WienerKhintchineTheorem.htm20-Aug-2013 10:24 23K 
[   ]10.D._DynamicEquilibriumFluctuationsAndTransportProcesses.doc20-Aug-2013 10:24 50K 
[TXT]10.D._DynamicEquilibriumFluctuationsAndTransportProcesses.htm20-Aug-2013 10:24 22K 
[   ]10.E.1._TheResponseMatrix.doc20-Aug-2013 10:24 93K 
[TXT]10.E.1._TheResponseMatrix.htm20-Aug-2013 10:24 43K 
[   ]10.E.2.1._KramersKronigRelations.doc20-Aug-2013 10:24 177K 
[TXT]10.E.2.1._KramersKronigRelations.htm20-Aug-2013 10:24 68K 
[   ]10.E.2.2._Response.doc20-Aug-2013 10:24 78K 
[TXT]10.E.2.2._Response.htm20-Aug-2013 10:24 46K 
[   ]10.E.2.3._SuddenSwitchOff.doc20-Aug-2013 10:24 108K 
[TXT]10.E.2.3._SuddenSwitchOff.htm20-Aug-2013 10:24 46K 
[   ]10.E.2._Causality.doc20-Aug-2013 10:24 51K 
[TXT]10.E.2._Causality.htm20-Aug-2013 10:24 23K 
[   ]10.E.3.1._Exercise10.5.doc20-Aug-2013 10:24 69K 
[TXT]10.E.3.1._Exercise10.5.htm20-Aug-2013 10:24 31K 
[   ]10.E.3._TheFluctuationDissipationTheorem.doc20-Aug-2013 10:24 91K 
[TXT]10.E.3._TheFluctuationDissipationTheorem.htm20-Aug-2013 10:24 42K 
[   ]10.E.4.1._DeltaFunctionForce.doc20-Aug-2013 10:24 61K 
[TXT]10.E.4.1._DeltaFunctionForce.htm20-Aug-2013 10:24 30K 
[   ]10.E.4.2._OscillatingForce.doc20-Aug-2013 10:24 84K 
[TXT]10.E.4.2._OscillatingForce.htm20-Aug-2013 10:24 40K 
[   ]10.E.4.3._Exercise10.6.doc20-Aug-2013 10:24 162K 
[TXT]10.E.4.3._Exercise10.6.htm20-Aug-2013 10:24 63K 
[   ]10.E.4._PowerAbsorption.doc20-Aug-2013 10:24 76K 
[TXT]10.E.4._PowerAbsorption.htm20-Aug-2013 10:24 36K 
[   ]10.E._LinearResponseTheoryFluctuationDissipationTheorem.doc20-Aug-2013 10:24 50K 
[TXT]10.E._LinearResponseTheoryFluctuationDissipationTheorem.htm20-Aug-2013 10:24 23K 
[   ]10.F.1.1._SpecificQuantitiesAndEntropyChanges.doc20-Aug-2013 10:24 135K 
[TXT]10.F.1.1._SpecificQuantitiesAndEntropyChanges.htm20-Aug-2013 10:24 52K 
[   ]10.F.1.2._EntropyProduction.doc20-Aug-2013 10:24 128K 
[TXT]10.F.1.2._EntropyProduction.htm20-Aug-2013 10:24 56K 
[   ]10.F.1.3._AlternativeForm.doc20-Aug-2013 10:24 64K 
[TXT]10.F.1.3._AlternativeForm.htm20-Aug-2013 10:24 33K 
[   ]10.F.1.4._Exercise10.7.doc20-Aug-2013 10:24 223K 
[TXT]10.F.1.4._Exercise10.7.htm20-Aug-2013 10:24 73K 
[   ]10.F.1._EntropyProductionInMultiComponentSystems.doc20-Aug-2013 10:24 50K 
[TXT]10.F.1._EntropyProductionInMultiComponentSystems.htm20-Aug-2013 10:24 23K 
[   ]10.F.2._FickLawForDiffusion.doc20-Aug-2013 10:24 130K 
[TXT]10.F.2._FickLawForDiffusion.htm20-Aug-2013 10:24 51K 
[   ]10.F.3._ThermalDiffusion.doc20-Aug-2013 10:24 89K 
[TXT]10.F.3._ThermalDiffusion.htm20-Aug-2013 10:24 40K 
[   ]10.F.4._ElectricalConductivityAndDiffusionInFluids.doc20-Aug-2013 10:24 88K 
[TXT]10.F.4._ElectricalConductivityAndDiffusionInFluids.htm20-Aug-2013 10:24 35K 
[   ]10.F.5._Exercise10.8.doc20-Aug-2013 10:24 148K 
[TXT]10.F.5._Exercise10.8.htm20-Aug-2013 10:24 78K 
[   ]10.F._TransportPropertiesOfMixtures.doc20-Aug-2013 10:24 50K 
[TXT]10.F._TransportPropertiesOfMixtures.htm20-Aug-2013 10:24 23K 
[   ]10._HydrodynamicProcessesNearEquilibrium.doc20-Aug-2013 10:24 50K 
[TXT]10._HydrodynamicProcessesNearEquilibrium.htm20-Aug-2013 10:24 23K 
[   ]Chap10.chm20-Aug-2013 10:24 265K 
[   ]Chap10.hhp20-Aug-2013 10:24 2.7K 
[TXT]Chap10.htm20-Aug-2013 10:24 278  
[TXT]Log1.log20-Aug-2013 10:24 6.3K 
[DIR]Problems/20-Aug-2013 10:24 -  
[TXT]TOC10.hhc20-Aug-2013 10:24 12K 
[TXT]TOC10.htm20-Aug-2013 10:24 577  
[TXT]mathpage.js20-Aug-2013 10:24 12K 
[TXT]right.htm20-Aug-2013 10:24 849